Wind_Speed
25 26 26 25 24 24 23 23 23 24 24 25 25 25 25 25 26 26 25 25 24 24 26 25 24 25 25 24 24 22 22 23 21 18 19 20 20 20 21 21 20 18 17
25 24 23 22 22 23 23 24 24 25 26 26 26 26 26 26 27 26 27 27 27 25 27 28 26 27 27 27 28 27 26 27 26 22 22 24 23 23 23 23 22 20 19
24 23 22 22 23 24 25 26 26 26 26 27 26 26 26 27 27 27 28 28 29 28 29 29 28 30 30 31 29 28 29 30 31 30 24 26 26 26 25 26 25 23 21
23 22 22 23 23 23 23 23 23 24 24 25 26 26 27 27 28 28 28 28 29 30 30 31 30 30 32 33 33 32 32 33 33 33 31 29 29 29 29 28 26 27 25
23 23 23 22 21 22 22 23 23 24 24 24 23 24 25 26 27 27 28 28 28 29 30 30 31 32 33 34 35 34 35 36 36 36 35 34 31 31 33 31 29 28 28
22 21 21 21 22 23 24 24 24 23 23 23 24 24 25 25 26 27 28 28 29 29 30 31 31 31 33 34 34 35 35 37 37 38 37 37 34 34 36 36 33 31 29
20 20 21 22 23 24 24 24 24 24 24 25 26 26 27 28 27 27 28 28 29 30 31 32 31 31 33 33 34 34 35 36 37 38 38 36 36 36 36 37 36 34 31
21 22 23 24 24 25 24 23 24 25 27 29 30 30 31 32 31 31 30 29 29 30 31 33 33 32 33 34 34 34 34 35 37 38 37 36 36 36 36 37 37 36 34
23 24 24 24 25 25 25 26 28 29 30 31 32 32 31 31 31 31 31 31 30 30 31 33 33 32 33 35 34 34 33 33 36 37 37 37 37 36 36 38 36 37 36
25 25 25 25 25 26 28 30 32 32 33 33 32 34 34 32 33 33 32 31 29 29 29 30 32 31 31 33 34 34 33 33 36 36 36 35 36 36 37 37 36 37 38
25 25 25 26 28 30 32 34 34 35 35 35 34 33 33 33 32 33 33 33 32 30 30 29 30 31 30 31 32 32 31 31 33 35 34 32 33 33 34 36 36 37 37
25 26 27 30 32 33 33 34 36 37 36 35 34 33 33 32 33 34 34 34 35 34 31 32 31 31 31 31 31 32 31 31 30 31 31 31 32 32 33 33 32 33 33
27 29 30 31 32 34 35 34 33 34 35 34 34 34 32 31 32 34 34 34 34 35 34 34 32 31 32 33 34 35 35 34 33 31 30 29 30 31 30 31 32 32 32
29 29 30 31 32 33 33 34 35 34 35 35 35 35 35 33 32 33 34 34 34 34 34 34 34 34 34 34 34 36 38 39 38 36 34 32 30 30 29 30 30 31 32
28 28 30 30 31 32 33 34 35 36 37 37 36 37 38 37 35 35 36 36 36 37 38 38 37 37 36 35 35 36 39 40 42 41 40 37 34 33 31 31 31 32 32
26 26 28 30 33 34 36 35 34 37 36 37 38 40 39 39 39 38 37 37 37 38 39 40 40 40 40 40 39 37 36 37 41 44 44 43 40 37 35 34 34 34 34
27 28 28 28 30 32 33 35 37 34 35 37 36 36 36 39 39 39 39 39 38 38 39 40 40 40 40 40 40 40 39 37 37 39 43 45 43 42 40 39 37 37 36
24 26 28 28 29 31 33 35 37 38 39 37 33 35 35 38 40 40 40 40 39 37 38 39 39 40 40 41 39 38 37 37 37 37 38 40 42 41 41 39 38 38 38
26 27 28 30 33 35 38 39 39 39 39 39 38 35 32 35 38 38 37 39 40 39 38 38 38 39 39 38 38 38 37 36 35 35 35 36 38 40 40 40 39 37 36
27 30 33 35 37 39 40 41 41 39 39 38 38 37 38 39 39 38 38 38 37 38 37 38 38 38 38 37 37 37 36 33 32 31 32 33 32 34 37 37 35 36 35
32 35 37 39 41 42 43 42 41 39 39 38 38 39 40 43 43 42 42 41 39 38 37 37 38 38 38 38 37 36 35 33 33 32 30 30 30 31 32 33 33 33 37
38 40 40 41 42 43 43 43 41 41 40 41 41 42 40 40 41 42 43 41 39 39 38 38 37 38 38 38 37 35 33 32 30 31 30 29 30 31 30 31 34 34 35
41 41 42 43 43 43 44 44 42 42 42 42 43 41 38 39 37 38 39 38 39 38 37 37 38 38 38 37 36 35 34 33 32 31 30 30 30 29 32 31 33 32 34
42 43 44 44 43 42 41 39 39 41 43 44 41 39 40 40 39 38 36 36 36 36 36 36 37 38 38 36 33 33 33 33 32 31 31 32 32 31 33 36 37 36 36
44 45 45 43 41 39 39 39 40 40 39 38 40 41 41 40 38 36 35 34 35 35 35 37 39 38 36 34 34 34 33 33 32 30 30 31 32 32 33 34 35 38 39
45 44 41 39 39 39 39 38 37 36 38 37 36 35 35 35 34 34 33 32 32 33 36 38 38 36 35 35 35 34 33 32 30 27 27 28 29 29 30 31 31 31 30
Wind_Direction
297 299 298 297 296 296 298 299 300 300 300 301 299 300 297 293 288 287 284 283 283 279 277 275 276 276 277 279 280 279 279 281 283 285 288 291 296 298 302 306 310 313 315
301 298 294 292 293 295 297 298 299 299 298 297 297 295 294 295 291 285 281 280 279 278 277 276 275 275 275 275 277 279 280 281 281 278 283 287 289 292 295 297 299 301 306
292 290 289 290 294 296 297 299 300 301 299 297 294 293 292 291 292 290 286 281 280 278 276 276 275 274 274 272 270 272 275 277 279 280 277 279 283 285 288 291 292 293 297
287 285 287 289 292 294 296 297 298 299 300 300 301 299 295 291 288 288 288 286 284 282 281 280 278 276 273 271 272 273 271 272 275 277 278 279 280 282 284 285 288 290 290
283 285 287 290 293 297 299 302 302 303 303 303 302 300 298 295 292 289 287 286 285 284 283 279 278 277 275 274 272 271 272 274 274 276 277 278 280 280 280 281 283 284 284
286 287 291 295 298 301 304 305 305 305 305 305 304 303 302 300 300 297 293 290 287 284 282 281 280 278 276 276 275 275 274 274 274 276 277 279 280 280 281 282 283 282 282
281 284 287 292 296 299 301 302 304 305 306 306 306 306 305 304 303 301 298 295 291 286 283 280 279 278 277 275 274 274 275 275 276 276 277 280 279 279 279 279 280 280 281
283 285 288 292 295 297 298 299 301 304 305 305 304 304 303 301 300 298 296 294 293 291 289 285 282 279 277 275 274 274 275 276 276 276 276 275 275 275 277 277 277 278 277
284 286 288 290 291 292 294 296 299 300 301 302 303 302 301 300 299 297 296 295 293 292 290 289 289 287 283 280 278 274 271 271 271 272 273 275 277 276 275 275 276 276 275
282 283 284 286 287 289 293 296 299 301 303 304 304 303 302 300 299 297 296 294 293 291 290 290 290 290 289 287 285 282 278 272 270 271 273 272 270 272 273 273 272 273 273
279 281 283 287 291 295 297 298 300 303 304 304 305 304 302 300 298 297 296 296 295 293 290 288 288 288 288 288 287 286 285 280 278 276 273 272 271 270 268 270 271 272 274
279 282 286 290 293 294 296 297 299 300 299 298 298 297 297 297 296 295 295 295 294 293 290 288 286 284 282 282 282 283 283 282 280 279 279 278 276 273 271 272 273 273 273
281 284 286 289 293 297 299 299 299 298 299 298 297 295 292 290 291 292 294 294 293 293 293 292 289 286 283 280 278 277 277 276 276 276 276 275 275 277 278 277 275 274 273
282 286 289 291 293 294 295 297 298 298 297 297 297 295 293 291 289 287 288 290 291 292 291 292 291 289 286 283 278 274 274 276 276 275 274 273 272 272 273 273 274 275 275
286 288 290 291 293 294 295 296 296 298 299 299 297 296 295 293 292 291 291 290 291 292 292 292 291 290 287 284 281 278 276 274 274 274 274 273 271 270 269 269 269 271 274
288 290 292 293 294 297 299 299 300 300 299 299 298 298 297 297 296 294 293 292 292 292 291 292 292 291 290 288 285 281 277 274 272 271 271 271 271 269 269 268 269 269 269
294 296 299 303 305 307 307 307 305 301 299 297 296 294 294 295 293 292 293 292 292 292 292 292 291 291 290 290 289 288 284 280 274 270 269 269 268 267 266 266 268 269 269
299 303 305 306 308 310 312 312 311 310 308 304 298 295 295 293 292 294 295 294 294 292 293 293 293 293 292 291 290 290 288 284 280 276 272 269 266 266 266 265 265 266 268
300 302 306 308 310 312 312 311 310 308 306 305 304 301 297 292 292 294 296 298 297 296 296 294 294 294 294 291 291 290 289 286 283 281 278 274 269 265 264 264 263 265 267
303 304 306 307 308 308 308 307 305 303 302 301 300 301 298 294 292 291 290 293 293 293 294 294 295 295 294 293 291 290 288 286 284 283 281 279 276 271 264 260 262 263 265
301 303 303 304 304 303 302 300 299 297 296 296 297 298 296 294 294 294 293 292 291 291 290 291 294 296 295 293 292 290 287 286 284 282 281 278 275 274 267 257 252 259 264
299 299 299 300 299 298 297 296 294 292 292 293 297 298 297 296 296 293 290 291 291 288 288 291 294 296 295 293 292 289 286 285 285 280 278 274 276 274 266 255 256 251 261
296 298 299 298 297 295 294 292 291 291 293 294 296 295 294 296 295 296 294 288 287 287 288 290 294 295 294 293 290 288 286 287 285 280 275 270 272 273 258 263 258 260 270
297 299 298 297 296 294 293 292 292 292 293 294 294 295 297 296 296 294 294 291 290 287 288 291 294 295 294 290 285 284 283 285 283 281 276 273 273 272 266 263 265 268 269
296 295 295 296 293 291 291 291 294 296 295 293 295 296 296 294 292 291 291 291 291 291 292 294 295 294 290 287 285 283 283 282 279 275 273 272 273 271 271 270 267 266 267
293 294 295 293 292 291 291 292 294 296 297 297 297 299 299 296 293 294 294 294 295 295 297 298 297 295 292 290 287 285 281 277 272 269 271 273 273 273 272 272 270 269 265
Height
3115 3113 3111 3109 3106 3105 3103 3101 3099 3097 3093 3091 3089 3087 3084 3082 3081 3080 3078 3076 3074 3073 3072 3070 3069 3068 3068 3066 3064 3063 3062 3060 3059 3060 3057 3056 3055 3053 3051 3049 3048 3046 3044
3109 3107 3105 3103 3101 3099 3097 3095 3093 3091 3088 3086 3083 3081 3079 3076 3074 3073 3071 3070 3068 3066 3065 3064 3062 3061 3062 3060 3059 3058 3057 3055 3054 3054 3052 3049 3048 3047 3046 3045 3044 3042 3040
3102 3100 3099 3097 3096 3094 3092 3089 3087 3085 3082 3079 3077 3074 3072 3070 3068 3066 3064 3063 3062 3060 3059 3057 3055 3054 3054 3053 3051 3051 3050 3048 3047 3046 3047 3045 3043 3041 3041 3039 3038 3037 3036
3096 3095 3094 3092 3090 3088 3085 3082 3080 3078 3076 3073 3070 3068 3065 3063 3061 3059 3057 3055 3054 3053 3051 3050 3048 3046 3045 3044 3044 3043 3042 3041 3040 3038 3038 3038 3036 3035 3033 3033 3032 3031 3030
3090 3089 3088 3086 3084 3082 3079 3076 3074 3072 3069 3066 3064 3061 3059 3056 3054 3052 3050 3048 3046 3045 3043 3041 3040 3039 3037 3036 3035 3034 3033 3033 3032 3031 3030 3029 3029 3027 3025 3025 3025 3024 3023
3085 3084 3083 3081 3079 3077 3074 3071 3069 3066 3063 3060 3058 3055 3052 3050 3048 3045 3043 3041 3038 3036 3034 3032 3031 3030 3028 3027 3026 3025 3025 3023 3022 3021 3021 3021 3021 3019 3017 3016 3016 3016 3017
3078 3077 3075 3074 3072 3070 3067 3065 3063 3061 3058 3055 3053 3050 3047 3044 3042 3039 3036 3033 3031 3028 3026 3024 3022 3021 3019 3018 3017 3016 3015 3013 3012 3011 3010 3011 3010 3008 3008 3007 3006 3006 3007
3072 3071 3069 3067 3065 3063 3061 3058 3056 3054 3051 3049 3046 3043 3040 3037 3034 3031 3028 3026 3023 3021 3018 3015 3014 3012 3009 3008 3007 3007 3006 3005 3003 3001 3000 3001 2999 2998 2997 2996 2996 2996 2997
3065 3064 3062 3061 3058 3056 3054 3052 3049 3047 3044 3041 3038 3035 3032 3028 3025 3023 3020 3018 3015 3013 3010 3007 3005 3004 3001 2998 2998 2997 2996 2995 2991 2990 2991 2991 2990 2989 2987 2985 2987 2985 2986
3058 3056 3055 3053 3052 3050 3047 3044 3041 3038 3036 3033 3031 3026 3023 3021 3018 3015 3012 3010 3008 3005 3002 3000 2997 2995 2993 2990 2988 2987 2986 2985 2982 2981 2980 2980 2978 2978 2976 2975 2975 2974 2974
3051 3049 3047 3046 3043 3041 3038 3035 3032 3030 3027 3024 3022 3019 3016 3012 3010 3006 3004 3001 2998 2997 2994 2992 2989 2987 2985 2982 2979 2977 2976 2975 2974 2972 2970 2969 2968 2966 2965 2964 2964 2963 2964
3043 3042 3040 3038 3035 3033 3031 3028 3024 3021 3019 3017 3014 3012 3008 3005 3001 2998 2996 2992 2989 2986 2984 2982 2981 2978 2976 2973 2970 2968 2966 2964 2963 2962 2962 2962 2960 2957 2956 2955 2955 2954 2954
3036 3035 3033 3030 3027 3024 3022 3019 3017 3013 3010 3007 3004 3002 3000 2998 2994 2989 2986 2983 2979 2976 2973 2971 2970 2968 2965 2964 2961 2958 2955 2954 2953 2952 2952 2951 2950 2949 2948 2947 2946 2945 2944
3028 3026 3024 3022 3020 3017 3014 3010 3007 3004 3001 2997 2994 2991 2989 2987 2984 2981 2978 2973 2970 2966 2962 2960 2958 2957 2955 2952 2950 2948 2945 2943 2941 2941 2941 2941 2941 2940 2939 2938 2937 2936 2936
3020 3019 3016 3014 3011 3009 3006 3002 2999 2995 2990 2987 2984 2980 2976 2975 2974 2970 2967 2964 2960 2956 2952 2949 2947 2945 2943 2942 2939 2937 2934 2932 2929 2929 2928 2929 2930 2929 2930 2929 2928 2927 2926
3012 3010 3008 3005 3002 2999 2995 2993 2989 2984 2981 2978 2974 2969 2966 2963 2960 2958 2956 2952 2948 2944 2940 2937 2934 2931 2930 2927 2926 2925 2923 2920 2918 2916 2915 2915 2916 2917 2918 2918 2918 2917 2916
3003 3001 2998 2995 2992 2989 2986 2983 2979 2978 2973 2969 2966 2962 2958 2953 2950 2947 2944 2940 2937 2933 2929 2925 2922 2919 2916 2914 2912 2910 2908 2907 2905 2903 2902 2901 2902 2903 2904 2906 2906 2905 2905
2994 2991 2989 2987 2984 2981 2977 2974 2970 2966 2961 2959 2958 2953 2950 2945 2939 2936 2933 2928 2925 2922 2917 2914 2911 2908 2905 2902 2900 2898 2895 2893 2891 2890 2888 2888 2888 2888 2889 2891 2892 2893 2893
2986 2984 2981 2978 2974 2971 2967 2964 2960 2956 2951 2947 2943 2942 2940 2935 2929 2926 2923 2918 2912 2909 2907 2904 2901 2897 2894 2891 2888 2885 2883 2881 2879 2877 2876 2875 2875 2876 2876 2878 2879 2881 2881
2977 2974 2971 2968 2965 2961 2957 2953 2949 2945 2940 2936 2932 2930 2926 2922 2919 2916 2913 2908 2904 2900 2896 2893 2890 2887 2883 2880 2876 2874 2871 2869 2867 2866 2864 2864 2864 2863 2864 2865 2867 2868 2869
2968 2965 2961 2958 2954 2949 2945 2941 2937 2933 2929 2925 2921 2919 2914 2908 2905 2902 2899 2897 2893 2889 2885 2882 2879 2875 2872 2869 2865 2862 2859 2857 2856 2854 2854 2853 2853 2852 2852 2853 2855 2857 2858
2957 2954 2950 2946 2942 2937 2933 2929 2925 2921 2917 2913 2909 2906 2902 2898 2893 2889 2886 2883 2881 2878 2875 2871 2867 2864 2860 2857 2854 2851 2849 2847 2845 2844 2843 2842 2842 2841 2841 2842 2844 2845 2846
2945 2941 2937 2934 2929 2925 2920 2916 2913 2909 2905 2901 2897 2893 2890 2886 2882 2878 2874 2871 2868 2866 2863 2860 2857 2853 2849 2845 2842 2840 2838 2836 2834 2833 2832 2831 2831 2830 2831 2832 2833 2834 2835
2932 2927 2924 2920 2915 2911 2907 2904 2901 2898 2893 2889 2885 2881 2878 2874 2870 2867 2863 2860 2857 2854 2851 2848 2845 2841 2837 2834 2831 2829 2827 2825 2824 2822 2821 2820 2820 2820 2820 2821 2821 2822 2823
2920 2915 2910 2906 2902 2898 2895 2892 2888 2885 2881 2877 2873 2869 2865 2861 2858 2855 2852 2849 2846 2843 2840 2836 2832 2828 2824 2821 2819 2817 2815 2814 2812 2811 2810 2810 2809 2809 2809 2809 2809 2810 2810
2906 2901 2897 2893 2890 2886 2883 2879 2876 2873 2870 2866 2862 2858 2853 2850 2847 2844 2841 2838 2835 2832 2828 2824 2820 2815 2811 2808 2806 2804 2802 2801 2801 2801 2800 2799 2799 2799 2798 2798 2798 2797 2798